GW4332 Weather Reports


time (UTC)temp
F
wind
direction
speed
knots
gust
knots
rain 1hr
in
rain 24hr
in
rain mn
in
humidity
%
barometer
mb
20260831191030 65 252 18.2 24.3 0.00 0.00 0.15 83 1013.2
20260831190030 65 252 20.0 26.1 0.00 0.00 0.15 83 1012.9
20260831185030 65 253 20.9 26.9 0.00 0.00 0.15 83 1012.7
20260831184029 65 256 20.9 26.9 0.00 0.00 0.15 83 1012.6
20260831183030 65 260 21.7 26.9 0.00 0.00 0.15 84 1012.3
20260831182030 65 247 21.7 29.5 0.00 0.00 0.15 84 1012.2
20260831181030 65 240 22.6 27.8 0.00 0.00 0.15 84 1012.0
20260831180030 65 237 20.9 28.7 0.00 0.00 0.15 85 1012.0
20260831175030 64 249 22.6 28.7 0.00 0.00 0.15 85 1011.7
20260831174029 65 237 23.5 33.0 0.00 0.00 0.15 83 1011.4
20260831173033 65 259 26.1 33.9 0.00 0.00 0.15 83 1011.2
20260831172030 65 256 25.2 33.0 0.00 0.00 0.15 81 1011.2
20260831171030 65 255 29.5 36.5 0.00 0.00 0.15 81 1010.9
20260831170030 65 252 29.5 40.8 0.00 0.00 0.15 83 1010.8
20260831165030 65 251 24.3 36.5 0.00 0.00 0.15 81 1010.5
20260831164030 66 246 21.7 29.5 0.00 0.00 0.15 81 1010.8
20260831163030 66 243 22.6 30.4 0.00 0.00 0.15 79 1010.6
20260831162029 66 243 22.6 31.3 0.00 0.00 0.15 80 1010.4
20260831161030 66 257 21.7 31.3 0.00 0.00 0.15 79 1010.1
20260831160030 66 249 21.7 28.7 0.00 0.00 0.15 80 1010.2
20260831155030 65 241 18.2 25.2 0.00 0.00 0.15 82 1010.2
20260831154030 65 250 21.7 32.2 0.00 0.00 0.15 81 1010.1
20260831153030 65 250 22.6 27.8 0.00 0.00 0.15 80 1009.9
20260831152029 65 249 23.5 31.3 0.00 0.00 0.15 78 1009.8
20260831151030 65 257 23.5 30.4 0.00 0.00 0.15 78 1009.7
20260831150030 65 250 20.9 28.7 0.00 0.00 0.15 80 1009.6
20260831145030 64 240 19.1 26.1 0.00 0.00 0.15 82 1009.7
20260831144030 64 246 20.0 26.9 0.00 0.00 0.15 82 1009.6
20260831143030 64 257 20.9 27.8 0.00 0.00 0.15 82 1009.4
20260831142029 64 233 21.7 30.4 0.00 0.00 0.15 81 1009.3
20260831141030 64 239 23.5 28.7 0.00 0.00 0.15 80 1009.0
20260831140030 65 251 24.3 33.0 0.00 0.00 0.15 80 1008.6
20260831135030 64 253 20.9 26.9 0.00 0.00 0.15 82 1008.6
20260831134030 64 258 24.3 32.2 0.00 0.00 0.15 81 1008.6
20260831133030 64 247 22.6 31.3 0.00 0.00 0.15 80 1008.5
20260831132030 65 247 19.1 23.5 0.00 0.00 0.15 80 1008.6
20260831131030 64 240 21.7 27.8 0.00 0.00 0.15 80 1008.4
20260831130030 64 239 22.6 27.8 0.00 0.00 0.15 79 1008.2
20260831125030 64 248 22.6 31.3 0.00 0.00 0.15 80 1008.0
20260831124030 63 250 24.3 33.9 0.00 0.00 0.15 81 1008.0
20260831123029 64 250 19.1 28.7 0.00 0.00 0.15 80 1007.8
20260831122030 64 232 19.1 24.3 0.00 0.00 0.15 81 1007.9
20260831121030 64 238 19.1 29.5 0.00 0.00 0.15 81 1007.6
20260831120030 64 236 20.0 27.8 0.00 0.00 0.15 84 1007.6
20260831115030 63 234 13.0 20.9 0.00 0.00 0.15 88 1007.7
20260831114030 61 233 15.6 26.1 0.00 0.00 0.15 88 1007.8
20260831113033 61 238 20.9 32.2 0.00 0.00 0.14 87 1007.7
20260831112030 62 202 12.2 22.6 0.00 0.00 0.14 87 1007.7
20260831111030 60 210 9.6 19.1 0.00 0.00 0.14 89 1007.7
20260831110030 59 214 9.6 19.1 0.00 0.00 0.14 88 1007.5
20260831105029 59 204 10.4 20.9 0.00 0.00 0.14 88 1007.6
20260831104029 60 230 22.6 33.0 0.00 0.00 0.14 87 1007.5
20260831103030 61 238 26.9 37.4 0.00 0.00 0.12 85 1006.6
20260831102032 65 236 14.8 26.9 0.00 0.00 0.12 78 1007.0
20260831101030 66 212 13.0 22.6 0.00 0.00 0.12 76 1006.9
20260831100030 66 203 13.9 28.7 0.00 0.00 0.12 77 1006.9
20260831095030 65 215 9.6 22.6 0.00 0.00 0.12 80 1007.0
20260831094030 65 206 11.3 25.2 0.00 0.00 0.12 81 1007.0
20260831093030 64 215 13.0 24.3 0.00 0.00 0.12 82 1006.9
20260831092030 64 211 9.6 21.7 0.00 0.00 0.12 84 1006.9
20260831091030 64 194 7.0 18.2 0.00 0.00 0.12 85 1006.6
20260831090030 64 197 7.8 16.5 0.00 0.00 0.11 85 1006.8
20260831085030 63 190 7.0 16.5 0.00 0.00 0.11 86 1007.0
20260831084030 63 197 10.4 20.9 0.00 0.00 0.11 87 1006.9
20260831083030 63 190 7.8 20.9 0.00 0.00 0.11 89 1007.0
20260831082029 62 191 7.0 16.5 0.00 0.00 0.11 90 1007.0
20260831081029 62 202 5.2 13.9 0.00 0.00 0.11 91 1007.1
20260831080030 62 205 6.1 14.8 0.00 0.00 0.11 91 1007.0
20260831075030 62 184 5.2 12.2 0.00 0.00 0.11 91 1006.9
20260831074030 62 167 3.5 12.2 0.00 0.00 0.11 91 1006.6
20260831073030 62 181 2.6 9.6 0.00 0.00 0.11 91 1006.5
20260831072030 62 182 4.3 11.3 0.00 0.00 0.11 90 1006.9
20260831071030 62 199 6.1 12.2 0.00 0.00 0.11 90 1007.3
20260831070030 62 176 5.2 16.5 0.00 0.00 0.11 89 1007.3
20260831065030 62 203 7.8 18.2 0.00 0.00 0.09 89 1007.4
20260831064030 62 205 8.7 17.4 0.00 0.00 0.06 89 1007.4
20260831063030 62 187 7.8 16.5 0.00 0.00 0.06 90 1007.3
20260831062030 62 193 7.0 16.5 0.00 0.00 0.06 90 1007.3
20260831061030 62 190 4.3 12.2 0.00 0.00 0.06 91 1007.1
20260831060030 61 200 3.5 9.6 0.00 0.00 0.06 91 1006.9
20260831055030 61 193 3.5 10.4 0.00 0.00 0.06 91 1006.9
20260831054030 61 174 2.6 9.6 0.00 0.00 0.06 91 1006.8
20260831053030 61 184 2.6 13.0 0.00 0.00 0.06 91 1006.9
20260831052030 61 155 1.7 8.7 0.00 0.00 0.06 91 1006.8
20260831051030 61 176 2.6 10.4 0.00 0.00 0.06 91 1007.0
20260831050030 61 189 2.6 10.4 0.00 0.00 0.06 91 1006.9
20260831045030 61 183 3.5 10.4 0.00 0.00 0.06 91 1006.9
20260831044029 61 179 2.6 10.4 0.00 0.00 0.06 91 1006.8
20260831043030 61 196 3.5 7.8 0.00 0.00 0.06 91 1006.8
20260831042030 61 186 1.7 6.1 0.00 0.00 0.06 91 1006.7
20260831040030 61 202 3.5 8.7 0.00 0.00 0.06 91 1007.0
20260831035030 61 181 2.6 10.4 0.00 0.00 0.06 91 1007.1
20260831034030 61 150 1.7 4.3 0.00 0.00 0.06 90 1007.2
20260831033030 61 145 1.7 6.1 0.00 0.00 0.06 90 1007.1
20260831032030 61 134 1.7 5.2 0.00 0.00 0.06 90 1007.1
20260831031030 61 126 1.7 5.2 0.00 0.00 0.06 90 1007.2
20260831030030 61 133 1.7 5.2 0.00 0.00 0.06 90 1007.1
20260831025029 61 138 1.7 5.2 0.00 0.00 0.06 90 1007.3
20260831024030 61 176 1.7 6.1 0.00 0.00 0.06 90 1007.4
20260831023030 61 120 1.7 5.2 0.00 0.00 0.06 90 1007.6
20260831022030 61 156 1.7 5.2 0.00 0.00 0.06 90 1007.6
20260831021030 61 186 2.6 6.1 0.00 0.00 0.06 90 1007.7
20260831020030 62 190 2.6 5.2 0.00 0.00 0.06 90 1007.8
20260831015030 62 183 2.6 6.1 0.00 0.00 0.06 90 1007.9
20260831014030 62 196 1.7 6.1 0.00 0.00 0.06 90 1007.7
20260831013030 62 193 1.7 4.3 0.00 0.00 0.06 90 1007.6
20260831012029 62 140 1.7 4.3 0.00 0.00 0.06 90 1007.6
20260831011029 62 120 1.7 4.3 0.00 0.00 0.06 90 1007.5
20260831010030 62 156 1.7 5.2 0.00 0.00 0.06 90 1007.8
20260831005030 62 136 0.9 4.3 0.00 0.00 0.06 90 1007.9
20260831004029 62 183 1.7 4.3 0.00 0.00 0.06 90 1008.1
20260831003030 62 139 1.7 6.1 0.00 0.00 0.06 90 1008.1
20260831002030 62 136 1.7 5.2 0.00 0.00 0.06 90 1008.1
20260831001030 62 121 1.7 5.2 0.00 0.00 0.06 90 1008.2
20260831000030 63 103 1.7 6.1 0.00 0.00 0.06 90 1008.1
20260830235030 63 137 1.7 5.2 0.00 0.00 0.06 89 1008.2
20260830234030 63 119 1.7 5.2 0.00 0.00 0.06 90 1008.3
20260830233030 64 106 1.7 3.5 0.00 0.00 0.06 89 1008.4
20260830232030 64 153 0.0 1.7 0.00 0.00 0.06 89 1008.4
20260830231030 64 172 1.7 4.3 0.00 0.00 0.06 89 1008.5
20260830230030 64 151 0.9 3.5 0.00 0.00 0.06 89 1008.5
20260830225030 64 197 3.5 6.1 0.00 0.00 0.06 89 1008.7
20260830224030 64 216 5.2 8.7 0.00 0.00 0.06 89 1008.8
20260830223030 64 229 6.1 11.3 0.00 0.00 0.06 88 1008.9
20260830222030 64 199 2.6 7.0 0.00 0.00 0.02 87 1009.0
20260830221030 64 98 1.7 6.1 0.00 0.00 0.00 87 1008.9
20260830220030 64 102 1.7 5.2 0.00 0.00 0.50 87 1008.9
20260830215030 64 113 0.9 5.2 0.00 0.00 0.50 87 1009.0
20260830214030 64 118 1.7 8.7 0.00 0.00 0.50 87 1009.1
20260830213030 64 151 0.9 8.7 0.00 0.00 0.50 87 1009.1
20260830212029 64 108 1.7 7.8 0.00 0.00 0.50 87 1009.2
20260830211030 64 131 1.7 7.0 0.00 0.00 0.50 86 1009.2
20260830210030 64 139 2.6 7.0 0.00 0.00 0.50 86 1009.3
20260830205030 65 129 1.7 7.0 0.00 0.00 0.50 85 1009.3
20260830204030 65 139 1.7 6.1 0.00 0.00 0.50 85 1009.5
20260830203030 65 136 1.7 6.1 0.00 0.00 0.50 85 1009.6
20260830202030 65 139 0.0 5.2 0.00 0.00 0.50 84 1009.7
20260830201030 65 101 0.0 0.9 0.00 0.00 0.50 84 1009.8
20260830200030 65 180 0.0 0.0 0.00 0.00 0.50 83 1009.9
20260830195030 66 180 0.0 0.0 0.00 0.00 0.50 83 1009.9
20260830194029 66 180 0.0 0.0 0.00 0.00 0.50 82 1010.1
20260830193030 66 180 0.0 0.0 0.00 0.00 0.50 82 1010.1
20260830192030 66 180 0.0 0.0 0.00 0.00 0.50 81 1010.2